NOAA 16 DEB, 41281

Orbit data source: Space-Track

NOAA 16 DEB, 41281 is space debris in SSO originally from a launch on Thu, 21 Sep 2000 UTC launched from the Air Force Western Test Range (AFWTR). Debris objects in space refer to the collection of defunct objects orbiting the Earth. Examples of debris include non-operational satellites, rocket bodies, and fragments generated from explosions, collisions, or faulty payload assembly.

Loading next visibility...
Identifier
41281, 2000-055GH
Orbit
SSO
Country
Flag of USUS
Related business
Manufacturer
Unknown
Mission
Spacecraft
Bus & Motor
Unknown
Mass
Unknown
Launch date (UTC)
2000-09-21 (26 years ago)
Launch vehicle
Unknown
Launch site
Air Force Western Test Range (AFWTR)
Object type
Payload
Rocket body
Debris
Shape & HBR
Unknown shape, 0.1 m
Radar Cross Section
Small (<0.1 m²)

Expand to show TLE details & history
Last TLE update: 1 day ago

TLE from 1 day ago
0 NOAA 16 DEB
1 41281U 00055GH  26126.14801984  .00004375  00000-0  18034-2 0  9995
2 41281  98.8044 192.9026 0027375 338.6508  21.3528 14.27156706533479
Epoch: 2026-05-06T03:33Z
TLE epoch observation values (Epoch: 2026-05-06T03:33:08.914Z)
Latitude
-0.00001°
Longitude
-84.39722°
Altitude
785.871 km
Speed
7.47 km/s
True Right ascension
12h 51m 36s
True Declination
0° 00' 00"
Sunlit
Object was in full shadow at epoch
Visualization orbit readout
Latitude
Unknown
Longitude
Unknown
Altitude
Unknown
Speed
Unknown
Apparent Right ascension
Unknown
Apparent Declination
Unknown
Sunlit
N/A
Visualization observer readout
Local Sidereal Time
12:42:28
Azimuth
Unknown
Elevation
Unknown
Doppler factor
Unknown
Orbital elements
Apogee altitude
818.05 km
Perigee altitude
778.758 km
Semi-major axis
7,176.541 km
Eccentricity
0.00274
Inclination
98.8044°
RAAN
192.9026°
Arg. of periapsis
338.6508°
True anomaly
21.46738°
Mean anomaly
21.3528°
Eccentric anomaly
21.41006°
Mean motion
3.57002 °/min
Orbital period
100.84 mins
BSTAR
0.0018034
Loading maneuver chart data...
Computing Atmospheric mass density...

Documentation

Showing up to 5 results
|